Location: Buisson
(44.2787°N, 4.9969°E)
Time: 02:23:41
(UTC+00:00)

CZ-4C R/B - Pass Details

Date: 18 April 2021
Orbit: 612 x 1390 km, 63.4° (Epoch: 07 May)

Event Time Altitude Azimuth Distance (km) Brightness Sun altitude
Rises 01:10:20 0° 324° (NW) 3,723 5.9 -31.1°
Reaches altitude 10° 01:13:01 10° 333° (NNW) 2,887 5.3 -30.9°
Maximum altitude 01:19:28 38° 40° (NE) 1,762 4.2 -30.4°
Drops below altitude 10° 01:26:55 10° 105° (ESE) 3,343 5.4 -29.7°
Sets 01:30:13 0° 113° (ESE) 4,377 6.0 -29.4°
